Chadron, NE

9:29 PM MST on January 17, 2018 (GMT -0700)
Chadron Municipal

Weather History for KCDR - December, 2013

Change the Weather History Date:

Wednesday, December 18, 2013

  Actual Average Record
Temperature  
Mean Temperature 33 °F 24 °F  
Max Temperature 48 °F 38 °F 66 °F (1979)
Min Temperature 18 °F 10 °F -24 °F (1983)
Degree Days  
Heating Degree Days 32 41  
Month to date heating degree days 864 721  
Since 1 July heating degree days 2500 2405  
Cooling Degree Days 0 0  
Month to date cooling degree days 0 0  
Year to date cooling degree days 917 712  
Moisture  
Dew Point 22 °F    
Average Humidity 69    
Maximum Humidity 88    
Minimum Humidity 49    
Precipitation  
Precipitation 0.00 in 0.01 in 0.28 in (1961)
Month to date precipitation 0.04 0.30  
Year to date precipitation 19.14 17.83  
Sea Level Pressure  
Sea Level Pressure 29.89 in    
Wind  
Wind Speed 3 mph (WSW)    
Max Wind Speed 14 mph    
Max Gust Speed 15 mph    
Visibility 10 miles    
Events      
T = Trace of Precipitation, MM = Missing Value Source: NWS Daily Summary

Daily Weather History Graph

Daily Weather History Graph

Search for Another Location

Airport or City:

Trip Planner

Search our weather history database for the weather conditions in past years. The results will help you decide how hot, cold, wet, or windy it might be!

Date:

Astronomy

Dec. 18, 2013 Rise Set
Actual Time 7:18 AM MST 4:20 PM MST
Civil Twilight 6:46 AM MST 4:52 PM MST
Nautical Twilight 6:10 AM MST 5:28 PM MST
Astronomical Twilight 5:35 AM MST 6:02 PM MST
Moon 5:56 PM MST 7:57 AM MST
Length of Visible Light 10h 06m
Length of Day
9h 01m
Full, 98% of the Moon is Illuminated
Dec 18
Full
Dec 25
Last Quarter
Jan 1
New
Jan 7
First Quarter
Jan 15
Full

Hourly Weather History & Observations

Time (MST) Temp. Windchill Dew Point Humidity Pressure Visibility Wind Dir Wind Speed Gust Speed Precip Events Conditions
12:53 AM 28.9 °F - 21.0 °F 72% 29.96 in 10.0 mi Calm Calm - N/A   Clear
1:53 AM 26.1 °F - 19.9 °F 78% 29.94 in 10.0 mi Calm Calm - N/A   Clear
2:53 AM 23.0 °F 18.4 °F 18.0 °F 81% 29.95 in 10.0 mi WSW 3.5 mph - N/A   Clear
3:53 AM 19.9 °F 13.4 °F 16.0 °F 85% 29.93 in 10.0 mi WSW 4.6 mph - N/A   Clear
4:53 AM 23.0 °F 17.0 °F 18.0 °F 81% 29.93 in 10.0 mi SW 4.6 mph - N/A   Clear
5:53 AM 21.0 °F 11.4 °F 17.1 °F 85% 29.92 in 10.0 mi WSW 8.1 mph - N/A   Clear
6:53 AM 21.9 °F 15.7 °F 18.0 °F 85% 29.90 in 10.0 mi WSW 4.6 mph - N/A   Clear
7:53 AM 21.0 °F 14.6 °F 16.0 °F 81% 29.90 in 10.0 mi WSW 4.6 mph - N/A   Clear
8:53 AM 26.1 °F - 19.9 °F 78% 29.89 in 10.0 mi Calm Calm - N/A   Clear
9:53 AM 32.0 °F 27.5 °F 23.0 °F 69% 29.88 in 10.0 mi West 4.6 mph - N/A   Clear
10:53 AM 34.0 °F - 24.1 °F 67% 29.86 in 10.0 mi Calm Calm - N/A   Clear
11:53 AM 37.9 °F 34.4 °F 27.0 °F 65% 29.84 in 10.0 mi SSW 4.6 mph - N/A   Clear
12:53 PM 43.0 °F 40.3 °F 28.0 °F 56% 29.81 in 10.0 mi WSW 4.6 mph - N/A   Clear
1:53 PM 46.0 °F 42.5 °F 28.9 °F 51% 29.80 in 10.0 mi WSW 6.9 mph - N/A   Clear
2:53 PM 46.9 °F - 30.9 °F 54% 29.81 in 10.0 mi Calm Calm - N/A   Clear
3:53 PM 39.9 °F - 28.9 °F 65% 29.83 in 10.0 mi Calm Calm - N/A   Clear
4:53 PM 37.9 °F 35.5 °F 27.0 °F 65% 29.86 in 10.0 mi NE 3.5 mph - N/A   Clear
5:53 PM 39.0 °F 32.3 °F 28.0 °F 65% 29.88 in 10.0 mi NNE 10.4 mph - N/A   Clear
6:53 PM 33.1 °F 27.7 °F 26.1 °F 75% 29.91 in 10.0 mi East 5.8 mph - N/A   Clear
7:53 PM 24.1 °F - 21.0 °F 88% 29.93 in 10.0 mi Calm Calm - N/A   Clear
8:53 PM 23.0 °F 15.8 °F 19.9 °F 88% 29.92 in 10.0 mi SW 5.8 mph - N/A   Clear
9:53 PM 25.0 °F - 21.0 °F 85% 29.91 in 10.0 mi Calm Calm - N/A   Clear
10:53 PM 24.1 °F - 21.0 °F 88% 29.91 in 10.0 mi Calm Calm - N/A   Clear
11:53 PM 21.9 °F - 19.9 °F 92% 29.88 in 10.0 mi Calm Calm - N/A   Clear